Time,TemperatureF,DewpointF,PressureIn,WindDirection,WindDirectionDegrees,WindSpeedMPH,WindSpeedGustMPH,Humidity,HourlyPrecipIn,Conditions,Clouds,dailyrainin,SoftwareType,DateUTC
2013-02-27 00:14:00,35.2,32.0,29.84,SSE,160,2.0,3.0,87,0.00,,,0.00,weatherlink.com 1.10,2013-02-27 05:14:00,
2013-02-27 00:29:00,34.6,32.0,29.84,ENE,61,5.0,6.0,89,0.00,,,0.00,weatherlink.com 1.10,2013-02-27 05:29:00,
2013-02-27 00:44:00,34.0,31.0,29.84,ESE,115,1.0,5.0,90,0.00,,,0.00,weatherlink.com 1.10,2013-02-27 05:44:00,
2013-02-27 00:59:00,33.9,31.0,29.84,SW,236,1.0,6.0,89,0.00,,,0.00,weatherlink.com 1.10,2013-02-27 05:59:00,
2013-02-27 01:14:00,34.1,31.0,29.84,SSE,151,0.0,8.0,87,0.00,,,0.00,weatherlink.com 1.10,2013-02-27 06:14:00,
2013-02-27 01:29:00,33.9,31.0,29.85,NE,40,5.0,5.0,89,0.00,,,0.00,weatherlink.com 1.10,2013-02-27 06:29:00,
2013-02-27 01:44:00,34.1,31.0,29.85,NNW,328,1.0,5.0,87,0.00,,,0.00,weatherlink.com 1.10,2013-02-27 06:44:00,
2013-02-27 01:59:00,34.0,31.0,29.86,NW,311,0.0,8.0,88,0.00,,,0.00,weatherlink.com 1.10,2013-02-27 06:59:00,
2013-02-27 02:14:00,33.7,31.0,29.86,South,172,2.0,4.0,89,0.00,,,0.00,weatherlink.com 1.10,2013-02-27 07:14:00,
2013-02-27 02:29:00,33.5,31.0,29.86,NW,322,1.0,6.0,89,0.00,,,0.00,weatherlink.com 1.10,2013-02-27 07:29:00,
2013-02-27 02:45:00,33.2,30.0,29.87,NW,322,2.0,6.0,89,0.00,,,0.00,weatherlink.com 1.10,2013-02-27 07:45:00,
2013-02-27 03:00:00,33.0,29.0,29.86,SSW,203,2.0,14.0,86,0.00,,,0.00,weatherlink.com 1.10,2013-02-27 08:00:00,
2013-02-27 03:15:00,32.8,29.0,29.86,SW,221,2.0,6.0,86,0.00,,,0.00,weatherlink.com 1.10,2013-02-27 08:15:00,
2013-02-27 03:30:00,32.6,29.0,29.86,North,349,5.0,10.0,87,0.00,,,0.00,weatherlink.com 1.10,2013-02-27 08:30:00,
2013-02-27 03:45:00,32.5,29.0,29.87,SW,226,7.0,7.0,87,0.00,,,0.00,weatherlink.com 1.10,2013-02-27 08:45:00,
2013-02-27 04:00:00,32.5,29.0,29.86,WNW,295,2.0,11.0,87,0.00,,,0.00,weatherlink.com 1.10,2013-02-27 09:00:00,
2013-02-27 04:15:00,32.4,30.0,29.87,NNW,336,3.0,8.0,89,0.00,,,0.00,weatherlink.com 1.10,2013-02-27 09:15:00,
2013-02-27 04:30:00,32.5,29.0,29.88,WNW,284,1.0,14.0,88,0.00,,,0.00,weatherlink.com 1.10,2013-02-27 09:30:00,
2013-02-27 04:45:00,32.5,30.0,29.88,NW,307,4.0,5.0,89,0.00,,,0.00,weatherlink.com 1.10,2013-02-27 09:45:00,
2013-02-27 05:00:00,32.5,29.0,29.89,NW,311,7.0,11.0,88,0.00,,,0.00,weatherlink.com 1.10,2013-02-27 10:00:00,
2013-02-27 05:15:00,32.7,29.0,29.89,WNW,303,10.0,13.0,87,0.00,,,0.00,weatherlink.com 1.10,2013-02-27 10:15:00,
2013-02-27 05:30:00,32.6,29.0,29.90,WNW,284,3.0,11.0,86,0.00,,,0.00,weatherlink.com 1.10,2013-02-27 10:30:00,
2013-02-27 05:45:00,32.4,29.0,29.91,NNW,328,5.0,12.0,87,0.00,,,0.00,weatherlink.com 1.10,2013-02-27 10:45:00,
2013-02-27 06:00:00,32.3,29.0,29.92,WNW,302,1.0,8.0,88,0.00,,,0.00,weatherlink.com 1.10,2013-02-27 11:00:00,
2013-02-27 06:15:00,32.2,29.0,29.92,West,261,0.0,6.0,88,0.00,,,0.00,weatherlink.com 1.10,2013-02-27 11:15:00,
2013-02-27 06:30:00,32.1,29.0,29.93,WNW,294,0.0,5.0,88,0.00,,,0.00,weatherlink.com 1.10,2013-02-27 11:30:00,
2013-02-27 06:45:00,32.0,29.0,29.92,WNW,299,2.0,3.0,89,0.00,,,0.00,weatherlink.com 1.10,2013-02-27 11:45:00,
2013-02-27 07:00:00,31.8,29.0,29.92,WNW,284,0.0,4.0,89,0.00,,,0.00,weatherlink.com 1.10,2013-02-27 12:00:00,
2013-02-27 07:15:00,31.8,29.0,29.93,NNW,340,1.0,5.0,90,0.00,,,0.00,weatherlink.com 1.10,2013-02-27 12:15:00,
2013-02-27 07:30:00,31.7,29.0,29.94,West,280,3.0,4.0,90,0.00,,,0.00,weatherlink.com 1.10,2013-02-27 12:30:00,
2013-02-27 07:45:00,31.8,29.0,29.95,WNW,302,2.0,4.0,89,0.00,,,0.00,weatherlink.com 1.10,2013-02-27 12:45:00,
2013-02-27 08:00:00,32.0,29.0,29.95,NNW,328,1.0,3.0,88,0.00,,,0.00,weatherlink.com 1.10,2013-02-27 13:00:00,
2013-02-27 08:15:00,32.2,29.0,29.95,WSW,240,0.0,1.0,87,0.00,,,0.00,weatherlink.com 1.10,2013-02-27 13:15:00,
2013-02-27 08:30:00,32.2,29.0,29.96,SE,136,0.0,2.0,88,0.00,,,0.00,weatherlink.com 1.10,2013-02-27 13:30:00,
2013-02-27 08:45:00,32.5,29.0,29.96,ENE,57,0.0,2.0,87,0.00,,,0.00,weatherlink.com 1.10,2013-02-27 13:45:00,
2013-02-27 09:00:00,32.6,29.0,29.97,ESE,120,0.0,1.0,85,0.00,,,0.00,weatherlink.com 1.10,2013-02-27 14:00:00,
2013-02-27 09:15:00,33.3,29.0,29.99,ESE,115,0.0,0.0,85,0.00,,,0.00,weatherlink.com 1.10,2013-02-27 14:15:00,
2013-02-27 09:30:00,34.3,30.0,29.99,North,353,0.0,4.0,84,0.00,,,0.00,weatherlink.com 1.10,2013-02-27 14:30:00,
2013-02-27 09:45:00,35.8,31.0,29.99,WSW,246,1.0,1.0,83,0.00,,,0.00,weatherlink.com 1.10,2013-02-27 14:45:00,
2013-02-27 10:00:00,37.1,31.0,29.99,WNW,301,0.0,3.0,80,0.00,,,0.00,weatherlink.com 1.10,2013-02-27 15:00:00,
2013-02-27 10:15:00,37.3,31.0,29.99,ESE,113,0.0,3.0,78,0.00,,,0.00,weatherlink.com 1.10,2013-02-27 15:15:00,
2013-02-27 10:30:00,37.9,32.0,29.99,ESE,104,1.0,3.0,80,0.00,,,0.00,weatherlink.com 1.10,2013-02-27 15:30:00,
2013-02-27 10:46:00,38.7,32.0,29.99,NNE,15,1.0,2.0,76,0.00,,,0.00,weatherlink.com 1.10,2013-02-27 15:46:00,
2013-02-27 11:01:00,39.5,32.0,29.99,NE,36,3.0,4.0,74,0.00,,,0.00,weatherlink.com 1.10,2013-02-27 16:01:00,
2013-02-27 11:16:00,40.1,32.0,29.98,NNE,30,4.0,6.0,73,0.00,,,0.00,weatherlink.com 1.10,2013-02-27 16:16:00,
2013-02-27 11:31:00,41.0,33.0,29.98,East,85,2.0,4.0,73,0.00,,,0.00,weatherlink.com 1.10,2013-02-27 16:31:00,
2013-02-27 11:46:00,43.5,36.0,29.98,NNW,341,2.0,3.0,76,0.00,,,0.00,weatherlink.com 1.10,2013-02-27 16:46:00,
2013-02-27 12:01:00,44.0,34.0,29.98,ENE,57,3.0,4.0,68,0.00,,,0.00,weatherlink.com 1.10,2013-02-27 17:01:00,
2013-02-27 12:16:00,45.4,35.0,29.97,WNW,302,1.0,3.0,66,0.00,,,0.00,weatherlink.com 1.10,2013-02-27 17:16:00,
2013-02-27 12:31:00,45.7,32.0,29.97,NW,308,1.0,3.0,60,0.00,,,0.00,weatherlink.com 1.10,2013-02-27 17:31:00,
2013-02-27 12:46:00,46.7,32.0,29.96,WNW,287,1.0,5.0,57,0.00,,,0.00,weatherlink.com 1.10,2013-02-27 17:46:00,
2013-02-27 13:01:00,46.3,31.0,29.96,NE,45,2.0,8.0,56,0.00,,,0.00,weatherlink.com 1.10,2013-02-27 18:01:00,
2013-02-27 13:16:00,46.8,32.0,29.95,NNW,329,1.0,7.0,57,0.00,,,0.00,weatherlink.com 1.10,2013-02-27 18:16:00,
2013-02-27 13:31:00,47.5,32.0,29.95,NNW,336,1.0,5.0,55,0.00,,,0.00,weatherlink.com 1.10,2013-02-27 18:31:00,
2013-02-27 13:46:00,48.5,31.0,29.94,North,350,2.0,4.0,52,0.00,,,0.00,weatherlink.com 1.10,2013-02-27 18:46:00,
2013-02-27 14:01:00,49.0,32.0,29.93,North,1,3.0,5.0,53,0.00,,,0.00,weatherlink.com 1.10,2013-02-27 19:01:00,
2013-02-27 14:16:00,49.4,31.0,29.93,SW,225,2.0,6.0,50,0.00,,,0.00,weatherlink.com 1.10,2013-02-27 19:16:00,
2013-02-27 14:31:00,49.4,32.0,29.94,WNW,294,1.0,6.0,52,0.00,,,0.00,weatherlink.com 1.10,2013-02-27 19:31:00,
2013-02-27 14:46:00,49.5,30.0,29.93,East,83,1.0,7.0,48,0.00,,,0.00,weatherlink.com 1.10,2013-02-27 19:46:00,
2013-02-27 15:01:00,48.9,30.0,29.93,West,271,1.0,6.0,48,0.00,,,0.00,weatherlink.com 1.10,2013-02-27 20:01:00,
2013-02-27 15:17:00,48.4,29.0,29.93,SW,229,1.0,9.0,48,0.00,,,0.00,weatherlink.com 1.10,2013-02-27 20:17:00,
2013-02-27 15:31:00,48.1,28.0,29.93,ESE,120,7.0,7.0,46,0.00,,,0.00,weatherlink.com 1.10,2013-02-27 20:31:00,
2013-02-27 15:46:00,47.7,28.0,29.93,WNW,295,8.0,9.0,47,0.00,,,0.00,weatherlink.com 1.10,2013-02-27 20:46:00,
2013-02-27 16:01:00,46.7,27.0,29.93,SW,219,1.0,7.0,47,0.00,,,0.00,weatherlink.com 1.10,2013-02-27 21:01:00,
2013-02-27 16:16:00,46.1,28.0,29.93,SW,215,4.0,8.0,49,0.00,,,0.00,weatherlink.com 1.10,2013-02-27 21:16:00,
2013-02-27 16:31:00,45.9,28.0,29.93,NW,309,3.0,6.0,50,0.00,,,0.00,weatherlink.com 1.10,2013-02-27 21:31:00,
2013-02-27 16:46:00,45.6,28.0,29.93,NW,309,3.0,4.0,51,0.00,,,0.00,weatherlink.com 1.10,2013-02-27 21:46:00,
2013-02-27 17:01:00,45.0,28.0,29.93,SSE,165,0.0,3.0,51,0.00,,,0.00,weatherlink.com 1.10,2013-02-27 22:01:00,
2013-02-27 17:16:00,44.2,29.0,29.94,SSW,211,3.0,6.0,56,0.00,,,0.00,weatherlink.com 1.10,2013-02-27 22:16:00,
2013-02-27 17:31:00,43.3,28.0,29.94,West,263,0.0,5.0,56,0.00,,,0.00,weatherlink.com 1.10,2013-02-27 22:31:00,
2013-02-27 17:46:00,43.2,30.0,29.94,SE,146,0.0,3.0,59,0.00,,,0.00,weatherlink.com 1.10,2013-02-27 22:46:00,
2013-02-27 18:01:00,43.8,30.0,29.94,SSW,212,1.0,3.0,59,0.00,,,0.00,weatherlink.com 1.10,2013-02-27 23:01:00,
2013-02-27 18:16:00,43.0,31.0,29.95,SW,222,2.0,2.0,64,0.00,,,0.00,weatherlink.com 1.10,2013-02-27 23:16:00,
2013-02-27 18:31:00,42.8,32.0,29.95,SSE,150,1.0,3.0,65,0.00,,,0.00,weatherlink.com 1.10,2013-02-27 23:31:00,
2013-02-27 18:46:00,42.6,31.0,29.95,SW,218,2.0,4.0,65,0.00,,,0.00,weatherlink.com 1.10,2013-02-27 23:46:00,
2013-02-27 19:01:00,42.4,31.0,29.95,SW,225,3.0,4.0,64,0.00,,,0.00,weatherlink.com 1.10,2013-02-28 00:01:00,
2013-02-27 19:16:00,41.7,33.0,29.95,WNW,296,0.0,3.0,71,0.00,,,0.00,weatherlink.com 1.10,2013-02-28 00:16:00,
2013-02-27 19:31:00,40.6,34.0,29.95,SE,142,2.0,3.0,77,0.00,,,0.00,weatherlink.com 1.10,2013-02-28 00:31:00,
2013-02-27 19:47:00,40.1,33.0,29.96,WNW,298,3.0,7.0,75,0.01,,,0.01,weatherlink.com 1.10,2013-02-28 00:47:00,
2013-02-27 20:02:00,39.9,33.0,29.95,NW,307,1.0,8.0,77,0.01,,,0.01,weatherlink.com 1.10,2013-02-28 01:02:00,
2013-02-27 20:17:00,40.0,32.0,29.95,ESE,103,1.0,5.0,74,0.01,,,0.01,weatherlink.com 1.10,2013-02-28 01:17:00,
2013-02-27 20:32:00,40.1,32.0,29.95,SE,136,1.0,7.0,72,0.01,,,0.01,weatherlink.com 1.10,2013-02-28 01:32:00,
2013-02-27 21:02:00,39.6,32.0,29.96,SW,224,1.0,8.0,73,0.00,,,0.01,weatherlink.com 1.10,2013-02-28 02:02:00,
2013-02-27 21:17:00,39.2,33.0,29.96,SW,229,0.0,4.0,77,0.00,,,0.01,weatherlink.com 1.10,2013-02-28 02:17:00,
2013-02-27 21:32:00,38.4,33.0,29.96,SSE,166,0.0,2.0,81,0.00,,,0.01,weatherlink.com 1.10,2013-02-28 02:32:00,
2013-02-27 21:47:00,38.1,32.0,29.96,NE,50,0.0,9.0,80,0.00,,,0.01,weatherlink.com 1.10,2013-02-28 02:47:00,
2013-02-27 22:02:00,37.9,33.0,29.96,WNW,290,2.0,13.0,81,0.00,,,0.01,weatherlink.com 1.10,2013-02-28 03:02:00,
2013-02-27 22:17:00,37.4,33.0,29.96,WNW,301,5.0,5.0,85,0.00,,,0.01,weatherlink.com 1.10,2013-02-28 03:17:00,
2013-02-27 22:32:00,36.9,33.0,29.96,WNW,294,1.0,6.0,84,0.00,,,0.01,weatherlink.com 1.10,2013-02-28 03:32:00,
2013-02-27 22:47:00,36.3,32.0,29.97,WNW,297,4.0,8.0,85,0.00,,,0.01,weatherlink.com 1.10,2013-02-28 03:47:00,
2013-02-27 23:02:00,35.8,31.0,29.97,WSW,240,2.0,5.0,84,0.00,,,0.01,weatherlink.com 1.10,2013-02-28 04:02:00,
2013-02-27 23:21:00,35.7,31.0,29.97,West,278,1.0,4.0,83,0.00,,,0.01,weatherlink.com 1.10,2013-02-28 04:21:00,
2013-02-27 23:32:00,35.7,30.0,29.97,NNW,328,4.0,6.0,81,0.00,,,0.01,weatherlink.com 1.10,2013-02-28 04:32:00,
2013-02-27 23:47:00,35.7,29.0,29.96,NE,43,3.0,10.0,78,0.00,,,0.01,weatherlink.com 1.10,2013-02-28 04:47:00,